Flag for Germany Weather past 2 weeks in Wesseling, North Rhine-Westphalia, Germany

Now
60 °F

Partly sunny.


Feels Like: 60 °F
Forecast: 69 / 90 °F
Wind: 1 mph from East

Location: Koeln / Bonn

Current Time: Aug 29, 2015 at 9:31:10 AM

Latest Report: Aug 29, 2015 at 9:00 AM


Visibility: 13 mi

Pressure: 30.21 "Hg

Humidity: 88%

Dew point: 56 °F

Location of WesselingLocation

Historic Weather in Wesseling — Graph

°F

Wesseling temperature yesterday

Maximum temperature yesterday: 69 °F (at 3:00 PM)
Minimum temperature yesterday: 55 °F (at 2:00 AM)
Average temperature yesterday: 62 °F

Past Weeks' High & Low Weather Summary

 TemperatureHumidityPressure
High82 °F (Aug 14, 6:00 PM)100% (Aug 19, 3:00 AM)30.27 "Hg (Aug 19, 3:00 AM)
Low47 °F (Aug 19, 7:00 AM)33% (Aug 23, 3:00 PM)29.58 "Hg (Aug 24, 3:00 PM)
Average64 °F74%29.96 "Hg
* Reported Aug 14 7:00 AM — Aug 29 7:00 AM, Wesseling, Weather by CustomWeather, © 2015

Note: Actual official high and low records may vary slightly from our data, if they occured in-between our weather recording intervals... More about our weather records

Advertising

Wesseling weather history for previous 24 hours

 ConditionsComfort  
Time TempWeatherWind HumidityBarometerVisibility
7:00 AM
Sat, Aug 29
50 °FFog.2 mph100%30.21 "Hg9 mi
6:00 AM51 °FFog.2 mph100%30.22 "Hg14 mi
5:00 AM51 °FFog.1 mph99%30.21 "Hg12 mi
4:00 AM51 °FFog.1 mph100%30.21 "Hg12 mi
3:00 AM51 °FFog.1 mph99%30.20 "Hg22 mi
2:00 AM52 °FPassing clouds.1 mph99%30.20 "Hg25 mi
1:00 AM53 °FFog.2 mph99%30.20 "Hg31 mi
11:00 PM
Fri, Aug 28
56 °FPassing clouds.1 mph95%30.18 "Hg37 mi
10:00 PM58 °FPassing clouds.2 mph88%30.16 "Hg37 mi
9:00 PM60 °FPassing clouds.1 mph83%30.15 "Hg43 mi
8:00 PM67 °FScattered clouds.2 mph60%30.13 "Hg43 mi
7:00 PM69 °FPartly sunny.2 mph57%30.11 "Hg43 mi
6:00 PM68 °FOvercast.2 mph63%30.11 "Hg43 mi
5:00 PM68 °FOvercast.1 mph60%30.10 "Hg43 mi
4:00 PM69 °FPartly sunny.2 mph59%30.10 "Hg43 mi
3:00 PM69 °FPartly sunny.2 mph60%30.09 "Hg43 mi
2:00 PM68 °FOvercast.2 mph65%30.08 "Hg43 mi
1:00 PM65 °FOvercast.1 mph72%30.08 "Hg28 mi
12:00 PM63 °FOvercast.1 mph73%30.07 "Hg25 mi
11:00 AM62 °FOvercast.1 mph79%30.06 "Hg25 mi
10:00 AM60 °FOvercast.1 mph88%30.04 "Hg22 mi
9:00 AM58 °FPartly sunny.1 mph93%30.03 "Hg9 mi
Weather by CustomWeather, © 2015

See weather overviewHow to use our weather pages